Regional Weather Roundup
Issued by NWS

Home | Current Version | Previous Version | Text Only | Print | Product List | Glossary On
Versions: 1 2 3 4 5 6 7 8 9 10 11 12 13 14 15 16 17 18 19 20 21 22 23 24 25 26 27 28 29 30 31 32 33 34 35 36 37 38 39 40 41 42 43 44 45 46 47 48 49 50
000
ASUS43 KFSD 240902
RWRSD

WEATHER ROUNDUP FOR SOUTH DAKOTA
NATIONAL WEATHER SERVICE SIOUX FALLS SD
400 AM CDT FRI MAR 24 2017

NOTE: "FAIR" INDICATES FEW OR NO CLOUDS BELOW 12,000 FEET WITH NO
SIGNIFICANT WEATHER AND/OR OBSTRUCTIONS TO VISIBILITY.


SDZ001>005-009-010-012>017-241000-
NORTHWEST AND NORTH CENTRAL SOUTH DAKOTA

CITY           SKY/WX    TMP DP  RH WIND       PRES   REMARKS
BUFFALO          N/A     37  34  89 W8        29.91S
FAITH            N/A     37  37 100 NW9       29.97R
MOBRIDGE       CLOUDY    39  33  79 NW9       29.92R
$$

SDZ012>016-024>037-041>051-057-063-072>074-241000-
SOUTHWEST AND SOUTH CENTRAL SOUTH DAKOTA

CITY           SKY/WX    TMP DP  RH WIND       PRES   REMARKS
RAPID CTY ARPT CLOUDY    42  37  82 N8        29.98S
PIERRE         CLOUDY    42  36  79 N9        29.92R
CUSTER         CLOUDY    36  30  79 N9        29.96R
ELLSWORTH AFB  LGT RAIN  43  39  87 NW9       29.98
PHILIP         MOCLDY    41  37  86 N14       29.95S
PINE RIDGE     CLOUDY    42  38  85 N10       29.95R
SPEARFISH      FAIR      39  37  93 CALM      30.00S
WINNER         PTSUNNY   42  38  85 N7        29.91R
$$

SDZ004>011-016>023-039-040-241000-
NORTHEAST SOUTH DAKOTA

CITY           SKY/WX    TMP DP  RH WIND       PRES   REMARKS
ABERDEEN       CLOUDY    35  32  88 N9        29.92R FOG     WCI  28
WATERTOWN      FOG       33  33 100 N8        29.85R VSB 1/2 WCI  26
BROOKINGS      CLOUDY    35  34  96 N7        29.83R FOG     WCI  29
SISSETON         N/A     34  34 100 N7        29.90S WCI  28
$$

SDZ017-020-022-023-036>040-048>070-241000-
SOUTHEAST SOUTH DAKOTA

CITY           SKY/WX    TMP DP  RH WIND       PRES   REMARKS
SIOUX FALLS    CLOUDY    41  39  93 N7        29.81R
HURON          CLOUDY    37  37 100 N13       29.88R
CHAMBERLAIN    CLOUDY    41  38  86 NW12      29.90R
MITCHELL       CLOUDY    39  38  96 N15       29.87R
YANKTON        CLOUDY    45  43  93 NW13      29.80F
$$

ABBREVIATIONS USED IN REMARKS
   TC - TEMPERATURE IN CELSIUS
  WCI - WIND CHILL INDEX
   HX - HEAT INDEX
  VSB - VISIBILITY





USA.gov is the U.S. government's official web portal to all federal, state and local government web resources and services.